Home   Weather   Salalah   Past weeks

Flag for Oman Past Weather in Salalah, Oman — Yesterday and Last 2 Weeks

Now
81 °F

Passing clouds.


Feels Like: 85 °F
Forecast: 78 / 89 °F
Wind: 5 mph from North

Location: Salalah Airport

Current Time: Apr 25, 2017 at 5:08:13 am

Latest Report: Apr 25, 2017 at 3:50 am


Visibility: N/A

Pressure: 29.83 "Hg

Humidity: 74%

Dew Point: 72 °F

Location of SalalahLocation

Past Weather in Salalah — Graph

°F

Salalah Temperature Yesterday

Maximum temperature yesterday: 88 °F (at 1:50 pm)
Minimum temperature yesterday: 77 °F (at 5:50 am)
Average temperature yesterday: 83 °F

High & Low Weather Summary for the Past Weeks

 TemperatureHumidityPressure
High100 °F (Apr 22, 12:50 pm)84% (Apr 10, 7:50 pm)29.98 "Hg (Apr 10, 7:50 pm)
Low73 °F (Apr 23, 6:50 am)5% (Apr 22, 9:50 am)29.74 "Hg (Apr 15, 2:50 pm)
Average84 °F62%29.85 "Hg
* Reported Apr 10 4:50 am — Apr 25 3:50 am, Salalah, Weather by CustomWeather, © 2017

Note: Actual official high and low records may vary slightly from our data, if they occured in-between our weather recording intervals... More about our weather records

Advertising

Salalah Weather History for the Previous 24 Hours

Scroll right to see more
 ConditionsComfort  
Time TempWeatherWind HumidityBarometerVisibility
3:50 am
Tue, Apr 25
81 °FPassing clouds.5 mph74%29.83 "HgN/A
2:50 am81 °FPassing clouds.3 mph79%29.83 "HgN/A
1:50 am82 °FPassing clouds.1 mph74%29.83 "HgN/A
12:50 am82 °FPassing clouds.2 mph74%29.86 "HgN/A
11:50 pm
Mon, Apr 24
82 °FPassing clouds.2 mph74%29.86 "HgN/A
10:50 pm82 °FPassing clouds.3 mph79%29.86 "HgN/A
9:50 pm82 °FPassing clouds.3 mph79%29.86 "HgN/A
8:50 pm82 °FPassing clouds.6 mph79%29.86 "HgN/A
7:50 pm84 °FPassing clouds.9 mph74%29.83 "HgN/A
6:50 pm84 °FPassing clouds.9 mph70%29.80 "HgN/A
5:50 pm86 °FPassing clouds.14 mph70%29.77 "HgN/A
4:50 pm86 °FPassing clouds.15 mph66%29.77 "HgN/A
3:50 pm88 °FPassing clouds.14 mph66%29.77 "HgN/A
2:50 pm86 °FPassing clouds.15 mph66%29.80 "HgN/A
1:50 pm88 °FPassing clouds.14 mph66%29.83 "HgN/A
12:50 pm86 °FPassing clouds.16 mph66%29.83 "HgN/A
11:50 am86 °FPassing clouds.15 mph66%29.86 "HgN/A
10:50 am86 °FPassing clouds.12 mph66%29.86 "HgN/A
9:50 am86 °FPassing clouds.3 mph62%29.86 "HgN/A
8:50 am84 °FPassing clouds.1 mph58%29.86 "HgN/A
7:50 am82 °FPassing clouds.3 mph45%29.86 "HgN/A
6:50 am77 °FPassing clouds.5 mph47%29.83 "HgN/A
5:50 am77 °FClear.7 mph61%29.83 "Hg10 mi
Weather by CustomWeather, © 2017

See weather overviewHow to use our weather pages